Flag for China Weather past 2 weeks in Hangzhou, Zhejiang, China

Now
79 °F

Passing clouds.


Feels Like: 79 °F
Forecast: 61 / 85 °F
Wind: 8 mph from East

Location: Hangzhou Airport

Current Time: Oct 25, 2014 at 3:58:47 PM

Latest Report: Oct 25, 2014 at 3:30 PM


Visibility: N/A

Pressure: 30.01 "Hg

Humidity: 39%

Dew point: 52 °F

Location of HangzhouLocation

Historic Weather in Hangzhou — Graph

°F

Hangzhou temperature yesterday

Maximum temperature yesterday: 77 °F (at 12:30 PM)
Minimum temperature yesterday: 55 °F (at 5:30 AM)
Average temperature yesterday: 66 °F

Past Weeks' High & Low Weather Summary

 TemperatureHumidityPressure
High88 °F (Oct 20, 2:00 PM)88% (Oct 23, 5:30 AM)30.24 "Hg (Oct 23, 5:30 AM)
Low52 °F (Oct 15, 6:00 AM)20% (Oct 15, 1:30 PM)29.89 "Hg (Oct 20, 1:30 PM)
Average68 °F60%30.10 "Hg
* Reported Oct 10 2:00 PM — Oct 25 2:30 PM, Hangzhou, Weather by CustomWeather, © 2014

Note: Actual official high and low records may vary slightly from our data, if they occured in-between our weather recording intervals... More about our weather records

Advertising

Hangzhou weather history for previous 24 hours

 ConditionsComfort  
Time TempWeatherWind HumidityBarometerVisibility
2:30 PM
Oct 25
81 °FSunny.1 mph30%30.01 "Hg10 mi
2:00 PM81 °FSunny.1 mph30%30.01 "Hg10 mi
1:30 PM81 °FPassing clouds.3 mph26%30.01 "HgN/A
1:00 PM81 °FSunny.1 mph28%30.04 "Hg10 mi
12:30 PM81 °FClear.1 mph30%30.04 "Hg5 mi
12:00 PM79 °FClear.3 mph32%30.07 "Hg4 mi
11:30 AM79 °FHaze.No wind42%30.07 "Hg2 mi
10:30 AM73 °FHaze.1 mph47%30.09 "Hg2 mi
10:00 AM72 °FHaze.1 mph57%30.09 "Hg2 mi
9:30 AM70 °FHaze.No wind60%30.09 "Hg2 mi
9:00 AM66 °FHaze.No wind68%30.12 "Hg2 mi
8:30 AM64 °FHaze.1 mph73%30.09 "Hg2 mi
8:00 AM63 °FHaze.1 mph73%30.09 "Hg2 mi
7:30 AM61 °FFog.No wind77%30.09 "Hg2 mi
7:00 AM59 °FFog.1 mph77%30.09 "Hg3 mi
6:30 AM57 °FFog.3 mph82%30.07 "Hg3 mi
6:00 AM57 °FFog.3 mph82%30.07 "Hg3 mi
5:30 AM57 °FFog.1 mph82%30.07 "Hg3 mi
5:00 AM59 °FClear.1 mph77%30.07 "Hg4 mi
4:30 AM59 °FFog.1 mph77%30.07 "Hg3 mi
4:00 AM59 °FFog.1 mph82%30.07 "Hg3 mi
3:30 AM59 °FFog.3 mph82%30.07 "Hg3 mi
3:00 AM59 °FFog.1 mph82%30.07 "Hg3 mi
2:30 AM59 °FFog.1 mph82%30.07 "Hg3 mi
2:00 AM59 °FFog.1 mph82%30.07 "Hg3 mi
1:30 AM59 °FFog.No wind82%30.07 "Hg3 mi
1:00 AM59 °FFog.No wind82%30.07 "Hg3 mi
12:30 AM61 °FClear.No wind77%30.07 "Hg4 mi
12:00 AM61 °FClear.No wind77%30.07 "Hg10 mi
11:30 PM
Oct 24
63 °FClear.1 mph73%30.07 "Hg10 mi
11:00 PM63 °FClear.1 mph77%30.07 "Hg10 mi
10:30 PM63 °FClear.3 mph77%30.07 "Hg10 mi
10:00 PM63 °FClear.3 mph77%30.07 "Hg10 mi
9:30 PM64 °FClear.3 mph73%30.07 "Hg10 mi
9:00 PM66 °FClear.1 mph73%30.07 "Hg10 mi
8:30 PM66 °FClear.1 mph73%30.07 "Hg10 mi
8:00 PM68 °FPassing clouds.3 mph69%30.07 "HgN/A
7:30 PM68 °FPassing clouds.3 mph69%30.07 "HgN/A
7:00 PM66 °FClear.3 mph73%30.07 "Hg10 mi
6:30 PM68 °FPassing clouds.3 mph64%30.07 "HgN/A
6:00 PM70 °FPassing clouds.6 mph60%30.04 "HgN/A
5:30 PM70 °FClear.8 mph60%30.04 "Hg10 mi
5:00 PM72 °FSunny.6 mph50%30.04 "Hg10 mi
4:30 PM73 °FSunny.8 mph44%30.04 "Hg10 mi
4:00 PM73 °FSunny.8 mph47%30.04 "Hg10 mi
3:30 PM75 °FSunny.8 mph41%30.04 "Hg10 mi
3:00 PM77 °FPassing clouds.6 mph39%30.04 "HgN/A
Weather by CustomWeather, © 2014

See weather overviewHow to use our weather pages